Pilot Vessel Akarana — ZMT2938 — position and weather

sailwx.info

Track history (hours):
 
Tides and Currents Weather Stations Pressure Air Temp Water Temp Dewpoint Dewpoint Depression Visibility Wind Speed Wind Dir Waves Ship Positions

Pilot Vessel Akarana

Last reported at 2014-Nov-22 17:33 UTC. Time now 2014-Nov-22 18:02 UTC.
Position S 36°51' E 174°47'.

Length 15 m; draft 1.6 m.

Type: Pilot. MMSI: 512000344.

Date/timePositionNaut miles runAvg speedWind from/ knotsBaromVisibWave heightAir tempDewpointWater temp
2014-Nov-22 17:33S 36°51' E 174°47'4 4.4
2014-Nov-22 16:34S 36°47' E 174°49'1 0.1
2014-Nov-22 11:34S 36°46' E 174°49'5 4.5
2014-Nov-22 10:33S 36°51' E 174°47'0 0.2
2014-Nov-22 09:33S 36°51' E 174°47'4 3.9
2014-Nov-22 08:33S 36°47' E 174°49'4 4.0
2014-Nov-22 07:33S 36°51' E 174°47'2 2.5
2014-Nov-22 06:34S 36°49' E 174°49'2 2.1
2014-Nov-22 05:24S 36°51' E 174°47'4 4.8
2014-Nov-22 04:34S 36°47' E 174°49'4 0.4
2014-Nov-21 18:14S 36°51' E 174°47'7 9.7
2014-Nov-21 17:33S 36°44' E 174°50'4 4.2
2014-Nov-21 16:33S 36°49' E 174°49'2 2.5
2014-Nov-21 15:33S 36°51' E 174°47'2 0.4
2014-Nov-21 11:17S 36°50' E 174°49'2 2.6
2014-Nov-21 10:33S 36°48' E 174°49'2 1.6
2014-Nov-21 09:33S 36°46' E 174°49'5 0.9
2014-Nov-21 04:24S 36°51' E 174°47'0 0.0
2014-Nov-20 20:32S 36°51' E 174°47'0 0.3
2014-Nov-20 19:32S 36°50' E 174°47'0 0.3
2014-Nov-20 18:27S 36°51' E 174°47'1 1.4
2014-Nov-20 17:33S 36°51' E 174°48'1 1.2
2014-Nov-20 16:33S 36°51' E 174°47'0 0.0
2014-Nov-20 15:18S 36°51' E 174°47'0 0.3
2014-Nov-20 14:31S 36°50' E 174°47'0 0.1
2014-Nov-20 10:24S 36°51' E 174°47'2 2.5
2014-Nov-20 09:33S 36°49' E 174°49'2 0.3
2014-Nov-20 03:17S 36°51' E 174°47'7 9.9
2014-Nov-20 02:34S 36°44' E 174°50'7 6.6
2014-Nov-20 01:29S 36°51' E 174°47'2 2.0
2014-Nov-20 00:33S 36°50' E 174°49'2 1.5
2014-Nov-19 23:21S 36°51' E 174°47'0 0.1
2014-Nov-19 22:19S 36°51' E 174°47'0 0.0
2014-Nov-19 08:25S 36°51' E 174°47'3 3.2
2014-Nov-19 07:33S 36°48' E 174°48'4 4.5
2014-Nov-19 06:33S 36°44' E 174°51'7 1.3
2014-Nov-19 01:28S 36°51' E 174°48'1 0.3
2014-Nov-18 21:14S 36°51' E 174°47'4 5.3
2014-Nov-18 20:33S 36°47' E 174°48'2 2.1
2014-Nov-18 19:31S 36°45' E 174°50'6 3.0
2014-Nov-18 17:33S 36°51' E 174°47'2 1.9
2014-Nov-18 16:34S 36°50' E 174°49'2 1.8
2014-Nov-18 15:32S 36°51' E 174°47'4 3.7
2014-Nov-18 14:34S 36°48' E 174°49'4 3.5
2014-Nov-18 13:33S 36°51' E 174°47'0 0.0
2014-Nov-18 10:07S 36°51' E 174°47'713.2
2014-Nov-18 09:33S 36°44' E 174°51'2 2.3
2014-Nov-18 08:34S 36°46' E 174°49'5 4.9
2014-Nov-18 07:32S 36°51' E 174°47'0 0.0
2014-Nov-18 06:27S 36°51' E 174°47'0 0.0
2014-Nov-18 05:33S 36°51' E 174°47'0 0.0
2014-Nov-18 03:19S 36°51' E 174°47'7 8.7
2014-Nov-18 02:33S 36°45' E 174°51'7 6.6
2014-Nov-18 01:33S 36°51' E 174°47'6 5.6
2014-Nov-18 00:33S 36°46' E 174°50'6 4.4
2014-Nov-17 23:17S 36°51' E 174°47'0 0.0
2014-Nov-17 20:33S 36°51' E 174°47'2 0.6
2014-Nov-17 16:34S 36°49' E 174°49'1 0.7
2014-Nov-17 15:31S 36°50' E 174°49'2 2.0
2014-Nov-17 14:34S 36°48' E 174°48'3 0.9
2014-Nov-17 11:33S 36°45' E 174°50'6 5.6
2014-Nov-17 10:33S 36°51' E 174°47'1 0.1
2014-Nov-17 01:33S 36°51' E 174°48'1 1.0
2014-Nov-17 00:34S 36°50' E 174°49'3 0.3
2014-Nov-16 15:33S 36°47' E 174°49'4 4.1
2014-Nov-16 14:33S 36°51' E 174°47'4 3.9
2014-Nov-16 13:34S 36°47' E 174°49'3 2.9
2014-Nov-16 12:33S 36°45' E 174°50'7 6.2
2014-Nov-16 11:28S 36°51' E 174°47'0 0.0
2014-Nov-16 10:32S 36°51' E 174°47'3 3.0
2014-Nov-16 09:33S 36°48' E 174°49'1 0.1
2014-Nov-15 23:10S 36°47' E 174°48'4 0.7
2014-Nov-15 17:29S 36°44' E 174°51'7 0.5
2014-Nov-15 03:32S 36°51' E 174°47'0 0.0
2014-Nov-15 02:32S 36°51' E 174°47'0 0.0
2014-Nov-15 01:20S 36°51' E 174°47'0 0.0
2014-Nov-15 00:25S 36°51' E 174°47'0 0.1
2014-Nov-14 23:34S 36°51' E 174°47'0 0.1
2014-Nov-14 22:33S 36°51' E 174°47'0 0.3
2014-Nov-14 21:33S 36°50' E 174°47'0 0.3
2014-Nov-14 20:34S 36°50' E 174°47'1 0.9
2014-Nov-14 19:11S 36°50' E 174°45'5 8.9
2014-Nov-14 18:33S 36°46' E 174°49'5 4.8
2014-Nov-14 17:31S 36°51' E 174°47'8 8.0
2014-Nov-14 16:33S 36°44' E 174°51'3 2.8
2014-Nov-14 15:34S 36°46' E 174°50'5 0.5
2014-Nov-14 06:24S 36°51' E 174°47'0 0.1
2014-Nov-14 05:33S 36°51' E 174°47'0 0.0
2014-Nov-14 01:05S 36°51' E 174°47'3 6.3
2014-Nov-14 00:34S 36°48' E 174°49'3 3.3
2014-Nov-13 23:33S 36°51' E 174°47'0 0.0
2014-Nov-13 22:31S 36°51' E 174°47'1 1.4
2014-Nov-13 21:30S 36°50' E 174°45'1 1.1
2014-Nov-13 20:09S 36°51' E 174°47'9 5.5
2014-Nov-13 18:31S 36°43' E 174°52'0 0.2
2014-Nov-13 16:31S 36°43' E 174°53'6 0.9
2014-Nov-13 10:29S 36°47' E 174°49'4 1.0
2014-Nov-13 06:33S 36°51' E 174°47'0 0.0
2014-Nov-13 05:33S 36°51' E 174°47'0 0.0
2014-Nov-13 04:33S 36°51' E 174°47'0 0.0
2014-Nov-13 03:33S 36°51' E 174°47'0 0.0
2014-Nov-13 02:33S 36°51' E 174°47'0 0.0
2014-Nov-13 01:32S 36°51' E 174°47'0 0.0
2014-Nov-13 00:33S 36°51' E 174°47'0 0.0
2014-Nov-12 23:32S 36°51' E 174°47'0 0.0
2014-Nov-12 22:34S 36°51' E 174°47'4 4.4
2014-Nov-12 21:33S 36°50' E 174°52'2 2.3
2014-Nov-12 20:30S 36°52' E 174°54'6 6.3
2014-Nov-12 19:33S 36°51' E 174°47'0 0.0
2014-Nov-12 18:33S 36°51' E 174°47'  
Track history (hours):
 
Tides and Currents Weather Stations Pressure Air Temp Water Temp Dewpoint Dewpoint Depression Visibility Wind Speed Wind Dir Waves Ship Positions

Pilot Vessel Akarana

Last reported at 2014-Nov-22 17:33 UTC. Time now 2014-Nov-22 18:02 UTC.
Position S 36°51' E 174°47'.

Length 15 m; draft 1.6 m.

Type: Pilot. MMSI: 512000344.

Date/timePositionNaut miles runAvg speedWind from/ knotsBaromVisibWave heightAir tempDewpointWater temp
2014-Nov-22 17:33S 36°51' E 174°47'4 4.4
2014-Nov-22 16:34S 36°47' E 174°49'1 0.1
2014-Nov-22 11:34S 36°46' E 174°49'5 4.5
2014-Nov-22 10:33S 36°51' E 174°47'0 0.2
2014-Nov-22 09:33S 36°51' E 174°47'4 3.9
2014-Nov-22 08:33S 36°47' E 174°49'4 4.0
2014-Nov-22 07:33S 36°51' E 174°47'2 2.5
2014-Nov-22 06:34S 36°49' E 174°49'2 2.1
2014-Nov-22 05:24S 36°51' E 174°47'4 4.8
2014-Nov-22 04:34S 36°47' E 174°49'4 0.4
2014-Nov-21 18:14S 36°51' E 174°47'7 9.7
2014-Nov-21 17:33S 36°44' E 174°50'4 4.2
2014-Nov-21 16:33S 36°49' E 174°49'2 2.5
2014-Nov-21 15:33S 36°51' E 174°47'2 0.4
2014-Nov-21 11:17S 36°50' E 174°49'2 2.6
2014-Nov-21 10:33S 36°48' E 174°49'2 1.6
2014-Nov-21 09:33S 36°46' E 174°49'5 0.9
2014-Nov-21 04:24S 36°51' E 174°47'0 0.0
2014-Nov-20 20:32S 36°51' E 174°47'0 0.3
2014-Nov-20 19:32S 36°50' E 174°47'0 0.3
2014-Nov-20 18:27S 36°51' E 174°47'1 1.4
2014-Nov-20 17:33S 36°51' E 174°48'1 1.2
2014-Nov-20 16:33S 36°51' E 174°47'0 0.0
2014-Nov-20 15:18S 36°51' E 174°47'0 0.3
2014-Nov-20 14:31S 36°50' E 174°47'0 0.1
2014-Nov-20 10:24S 36°51' E 174°47'2 2.5
2014-Nov-20 09:33S 36°49' E 174°49'2 0.3
2014-Nov-20 03:17S 36°51' E 174°47'7 9.9
2014-Nov-20 02:34S 36°44' E 174°50'7 6.6
2014-Nov-20 01:29S 36°51' E 174°47'2 2.0
2014-Nov-20 00:33S 36°50' E 174°49'2 1.5
2014-Nov-19 23:21S 36°51' E 174°47'0 0.1
2014-Nov-19 22:19S 36°51' E 174°47'0 0.0
2014-Nov-19 08:25S 36°51' E 174°47'3 3.2
2014-Nov-19 07:33S 36°48' E 174°48'4 4.5
2014-Nov-19 06:33S 36°44' E 174°51'7 1.3
2014-Nov-19 01:28S 36°51' E 174°48'1 0.3
2014-Nov-18 21:14S 36°51' E 174°47'4 5.3
2014-Nov-18 20:33S 36°47' E 174°48'2 2.1
2014-Nov-18 19:31S 36°45' E 174°50'6 3.0
2014-Nov-18 17:33S 36°51' E 174°47'2 1.9
2014-Nov-18 16:34S 36°50' E 174°49'2 1.8
2014-Nov-18 15:32S 36°51' E 174°47'4 3.7
2014-Nov-18 14:34S 36°48' E 174°49'4 3.5
2014-Nov-18 13:33S 36°51' E 174°47'0 0.0
2014-Nov-18 10:07S 36°51' E 174°47'713.2
2014-Nov-18 09:33S 36°44' E 174°51'2 2.3
2014-Nov-18 08:34S 36°46' E 174°49'5 4.9
2014-Nov-18 07:32S 36°51' E 174°47'0 0.0
2014-Nov-18 06:27S 36°51' E 174°47'0 0.0
2014-Nov-18 05:33S 36°51' E 174°47'0 0.0
2014-Nov-18 03:19S 36°51' E 174°47'7 8.7
2014-Nov-18 02:33S 36°45' E 174°51'7 6.6
2014-Nov-18 01:33S 36°51' E 174°47'6 5.6
2014-Nov-18 00:33S 36°46' E 174°50'6 4.4
2014-Nov-17 23:17S 36°51' E 174°47'0 0.0
2014-Nov-17 20:33S 36°51' E 174°47'2 0.6
2014-Nov-17 16:34S 36°49' E 174°49'1 0.7
2014-Nov-17 15:31S 36°50' E 174°49'2 2.0
2014-Nov-17 14:34S 36°48' E 174°48'3 0.9
2014-Nov-17 11:33S 36°45' E 174°50'6 5.6
2014-Nov-17 10:33S 36°51' E 174°47'1 0.1
2014-Nov-17 01:33S 36°51' E 174°48'1 1.0
2014-Nov-17 00:34S 36°50' E 174°49'3 0.3
2014-Nov-16 15:33S 36°47' E 174°49'4 4.1
2014-Nov-16 14:33S 36°51' E 174°47'4 3.9
2014-Nov-16 13:34S 36°47' E 174°49'3 2.9
2014-Nov-16 12:33S 36°45' E 174°50'7 6.2
2014-Nov-16 11:28S 36°51' E 174°47'0 0.0
2014-Nov-16 10:32S 36°51' E 174°47'3 3.0
2014-Nov-16 09:33S 36°48' E 174°49'1 0.1
2014-Nov-15 23:10S 36°47' E 174°48'4 0.7
2014-Nov-15 17:29S 36°44' E 174°51'7 0.5
2014-Nov-15 03:32S 36°51' E 174°47'0 0.0
2014-Nov-15 02:32S 36°51' E 174°47'0 0.0
2014-Nov-15 01:20S 36°51' E 174°47'0 0.0
2014-Nov-15 00:25S 36°51' E 174°47'0 0.1
2014-Nov-14 23:34S 36°51' E 174°47'0 0.1
2014-Nov-14 22:33S 36°51' E 174°47'0 0.3
2014-Nov-14 21:33S 36°50' E 174°47'0 0.3
2014-Nov-14 20:34S 36°50' E 174°47'1 0.9
2014-Nov-14 19:11S 36°50' E 174°45'5 8.9
2014-Nov-14 18:33S 36°46' E 174°49'5 4.8
2014-Nov-14 17:31S 36°51' E 174°47'8 8.0
2014-Nov-14 16:33S 36°44' E 174°51'3 2.8
2014-Nov-14 15:34S 36°46' E 174°50'5 0.5
2014-Nov-14 06:24S 36°51' E 174°47'0 0.1
2014-Nov-14 05:33S 36°51' E 174°47'0 0.0
2014-Nov-14 01:05S 36°51' E 174°47'3 6.3
2014-Nov-14 00:34S 36°48' E 174°49'3 3.3
2014-Nov-13 23:33S 36°51' E 174°47'0 0.0
2014-Nov-13 22:31S 36°51' E 174°47'1 1.4
2014-Nov-13 21:30S 36°50' E 174°45'1 1.1
2014-Nov-13 20:09S 36°51' E 174°47'9 5.5
2014-Nov-13 18:31S 36°43' E 174°52'0 0.2
2014-Nov-13 16:31S 36°43' E 174°53'6 0.9
2014-Nov-13 10:29S 36°47' E 174°49'4 1.0
2014-Nov-13 06:33S 36°51' E 174°47'0 0.0
2014-Nov-13 05:33S 36°51' E 174°47'0 0.0
2014-Nov-13 04:33S 36°51' E 174°47'0 0.0
2014-Nov-13 03:33S 36°51' E 174°47'0 0.0
2014-Nov-13 02:33S 36°51' E 174°47'0 0.0
2014-Nov-13 01:32S 36°51' E 174°47'0 0.0
2014-Nov-13 00:33S 36°51' E 174°47'0 0.0
2014-Nov-12 23:32S 36°51' E 174°47'0 0.0
2014-Nov-12 22:34S 36°51' E 174°47'4 4.4
2014-Nov-12 21:33S 36°50' E 174°52'2 2.3
2014-Nov-12 20:30S 36°52' E 174°54'6 6.3
2014-Nov-12 19:33S 36°51' E 174°47'0 0.0
2014-Nov-12 18:33S 36°51' E 174°47'  

Dump ship's entire track history